Pensacola NAS, FL

9:14 PM CDT on June 22, 2017 (GMT -0500)
Pensacola Naval Air Station

Weather History for KNPA - December, 2013

Change the Weather History Date:

Wednesday, December 11, 2013

  Actual Average Record
Temperature  
Mean Temperature 47 °F -  
Max Temperature 57 °F 62 °F 77 °F (2015)
Min Temperature 37 °F 44 °F 36 °F (2014)
Degree Days  
Heating Degree Days 18    
Moisture  
Dew Point 39 °F    
Average Humidity 72    
Maximum Humidity 90    
Minimum Humidity 56    
Precipitation  
Precipitation 0.00 in - - ()
Sea Level Pressure  
Sea Level Pressure 30.34 in    
Wind  
Wind Speed 7 mph (NNE)    
Max Wind Speed 12 mph    
Max Gust Speed -    
Visibility 10 miles    
Events      
Averages and records for this station are not official NWS values.
T = Trace of Precipitation, MM = Missing Value Source: NWS Daily Summary

Daily Weather History Graph

Daily Weather History Graph

Search for Another Location

Airport or City:

Trip Planner

Search our weather history database for the weather conditions in past years. The results will help you decide how hot, cold, wet, or windy it might be!

Date:

Astronomy

Dec. 11, 2013 Rise Set
Actual Time 6:35 AM CST 4:49 PM CST
Civil Twilight 6:09 AM CST 5:15 PM CST
Nautical Twilight 5:39 AM CST 5:45 PM CST
Astronomical Twilight 5:10 AM CST 6:15 PM CST
Moon 1:05 PM CST (12/11) 1:15 AM CST (12/11)
Length of Visible Light 11h 06m
Length of Day
10h 13m
Waxing Gibbous, 72% of the Moon is Illuminated
Dec 11
Waxing Gibbous
Dec 17
Full
Dec 25
Last Quarter
Jan 1
New
Jan 7
First Quarter

Hourly Weather History & Observations

Time (CST) Temp. Windchill Dew Point Humidity Pressure Visibility Wind Dir Wind Speed Gust Speed Precip Events Conditions
12:56 AM 39.9 °F 33.9 °F 35.1 °F 83% 30.31 in 10.0 mi NNE 9.2 mph - N/A   Clear
1:56 AM 41.0 °F 35.8 °F 34.0 °F 76% 30.30 in 10.0 mi NNE 8.1 mph - N/A   Clear
2:56 AM 37.9 °F 33.5 °F 35.1 °F 89% 30.30 in 10.0 mi North 5.8 mph - N/A   Clear
3:56 AM 37.9 °F 33.5 °F 34.0 °F 86% 30.30 in 10.0 mi North 5.8 mph - N/A   Clear
4:56 AM 37.9 °F 33.5 °F 34.0 °F 86% 30.31 in 10.0 mi North 5.8 mph - N/A   Clear
5:56 AM 37.0 °F 33.3 °F 34.0 °F 89% 30.34 in 10.0 mi NNW 4.6 mph - N/A   Mostly Cloudy
6:56 AM 39.0 °F 34.8 °F 33.1 °F 79% 30.35 in 10.0 mi North 5.8 mph - N/A   Mostly Cloudy
7:56 AM 44.1 °F 38.1 °F 32.0 °F 63% 30.37 in 10.0 mi NE 11.5 mph - N/A   Mostly Cloudy
8:56 AM 46.9 °F - 33.1 °F 59% 30.38 in 10.0 mi ENE 9.2 mph - N/A   Scattered Clouds
9:56 AM 50.0 °F - 36.0 °F 59% 30.38 in 10.0 mi ENE 9.2 mph - N/A   Scattered Clouds
10:56 AM 52.0 °F - 37.0 °F 57% 30.37 in 10.0 mi East 6.9 mph - N/A   Scattered Clouds
11:56 AM 54.0 °F - 39.0 °F 57% 30.34 in 10.0 mi Variable 3.5 mph - N/A   Scattered Clouds
12:56 PM 57.0 °F - 42.1 °F 57% 30.32 in 10.0 mi SE 8.1 mph - N/A   Scattered Clouds
1:56 PM 57.0 °F - 42.1 °F 57% 30.30 in 10.0 mi South 5.8 mph - N/A   Scattered Clouds
2:56 PM 57.9 °F - 42.1 °F 56% 30.30 in 10.0 mi Variable 3.5 mph - N/A   Mostly Cloudy
3:56 PM 57.0 °F - 45.0 °F 64% 30.30 in 10.0 mi SSW 3.5 mph - N/A   Mostly Cloudy
4:56 PM 54.0 °F - 45.0 °F 72% 30.31 in 10.0 mi NW 3.5 mph - N/A   Scattered Clouds
5:56 PM 48.9 °F - 46.0 °F 90% 30.33 in 10.0 mi North 3.5 mph - N/A   Scattered Clouds
6:56 PM 48.0 °F - 45.0 °F 89% 30.34 in 10.0 mi NNE 3.5 mph - N/A   Scattered Clouds
7:56 PM 51.1 °F - 44.1 °F 77% 30.34 in 10.0 mi NNE 4.6 mph - N/A   Scattered Clouds
8:56 PM 52.0 °F - 45.0 °F 77% 30.35 in 10.0 mi North 5.8 mph - N/A   Overcast
9:56 PM 54.0 °F - 42.1 °F 64% 30.35 in 10.0 mi NE 8.1 mph - N/A   Overcast
10:56 PM 53.1 °F - 42.1 °F 66% 30.38 in 10.0 mi NNW 5.8 mph - N/A   Overcast
11:56 PM 52.0 °F - 41.0 °F 66% 30.38 in 10.0 mi NNW 5.8 mph - N/A   Overcast